Regional Weather Roundup
Issued by NWS

Home | Current Version | Previous Version | Graphics & Text | Print | Product List | Glossary On
Versions: 1 2 3 4 5 6 7 8 9 10 11 12 13 14 15 16 17 18 19 20 21 22 23 24 25 26 27 28 29 30 31 32 33 34 35 36 37 38 39 40 41 42 43 44 45 46 47 48 49 50
000
ASUS45 KTFX 301619
RWRMT
MONTANA HOURLY WEATHER ROUNDUP
NATIONAL WEATHER SERVICE GREAT FALLS MT
1019 AM MDT WED JUL 30 2014

NOTE: "FAIR" INDICATES FEW OR NO CLOUDS BELOW 12000 FEET WITH NO
SIGNIFICANT WEATHER AND/OR OBSTRUCTIONS TO VISIBILITY.

* THESE STATIONS ARE NOT UNDER NWS QUALITY CONTROL. THEY DO NOT
   REPORT WEATHER SUCH AS PRECIPITATION OR FOG.

MTZ001>007-043-301700-
WEST OF THE DIVIDE
CITY           SKY/WX    TMP DP  RH WIND       PRES   REMARKS
KALISPELL      SUNNY     75  50  42 N17       30.13S
MISSOULA       PTCLDY    72  45  38 W3        30.17F
BUTTE          SUNNY     70  45  41 CALM      30.31F
MULLAN PASS    PTCLDY    73  39  29 CALM      30.31S
* LINCOLN      N/A       64  48  56 SE1        N/A
* LOOKOUT PASS N/A       70  48  46 SE4        N/A
* POLSON       N/A       73  56  55 SE2        N/A
* RONAN APT    SUNNY     79  52  39 N/A        N/A
* SEELEY LAKE  N/A       71  46  41 S2         N/A
* THOMP F APT  PTCLDY    70  40  34 NE7G18     N/A
* YAAK HILL    N/A       71  50  48 SE2        N/A
$$

MTZ008-052>055-301700-
SOUTHWEST MONTANA
CITY           SKY/WX    TMP DP  RH WIND       PRES   REMARKS
BOZEMAN        SUNNY     72  52  49 CALM      30.26S
DILLON         PTCLDY    66  50  56 SW6       30.29F
W YELLOWSTONE  CLOUDY    50  50 100 CALM      30.42S
* THREE FORKS  PTCLDY    72  72 100 N/A        N/A
* BOULDER HILL N/A       68  45  44 S9         N/A
* MONIDA PASS  N/A       65  47  52 VRB6       N/A
* RAYNOLDS PAS N/A       64  47  54 S4         N/A
* WHITEHALL    N/A       68  51  55 S4         N/A
* WISE RIVER   N/A       62  48  60 NW3        N/A
$$

MTZ009>010-012-014-046-048-049-054-301700-
EAST SLOPES AND CENTRAL MONTANA
CITY           SKY/WX    TMP DP  RH WIND       PRES   REMARKS
CUT BANK       PTCLDY    73  45  37 CALM      30.18R
GREAT FALLS    SUNNY     82  48  31 S8        30.17F
HELENA         SUNNY     72  50  46 N3        30.22S
MALMSTROM AFB  SUNNY     81  48  32 VRB2      30.18F
* CONRAD       SUNNY     73  55  53 N/A        N/A
* DEARBORN     N/A       79  49  35 S1         N/A
* EAST GLACIER N/A       76  50  40 W2         N/A
* MONARCH      N/A       76  43  31 SE7G12     N/A
* ROGERS PASS  N/A       75  43  32 SE8        N/A
* SAINT MARY   N/A       68  50  53 W3         N/A
* SWEET GRASS  N/A       75  43  32 S15G20     N/A
* WHITE SULPH  N/A       74  48  40 NW2        N/A
$$

MTZ011-013-016-021-035-040-045-047-050-051-301700-
NORTH CENTRAL MONTANA
CITY           SKY/WX    TMP DP  RH WIND       PRES   REMARKS
HAVRE          SUNNY     79  46  31 CALM      30.13F
LEWISTOWN      PTCLDY    82  39  22 SE8       30.24F
* CHINOOK      SUNNY     81  52  37 E3        30.12F
* FORT BENTON  SUNNY     81  45  28 CALM      30.15F
* CHESTER      N/A       80  44  28 S2         N/A
* DENTON       N/A       84  54  36 SE11       N/A
* GEYSER       N/A       85  46  26 SE11G19    N/A
* JUDITH GAP   N/A       73  54  51 SE9        N/A
* LOMA         N/A       79  47  32 S4G9       N/A
$$

MTZ017>020-022>027-061-062-301700-
NORTHEAST MONTANA
CITY           SKY/WX    TMP DP  RH WIND       PRES   REMARKS
GLASGOW        SUNNY     79  52  39 SE7       30.18S
GLENDIVE       SUNNY     75  54  48 N5        30.21F
JORDAN         SUNNY     82  45  27 SE6       30.19S
SIDNEY         SUNNY     75  61  62 E7        30.20F
WOLF POINT     SUNNY     75  55  50 SW3       30.19S
* BEAVER HILL  N/A       73  56  55 N5         N/A
* CIRCLE       N/A       78  56  47 SE1        N/A
* LINDSAY DVD  N/A       76  51  42 NE6        N/A
$$

MTZ028>042-056>058-301700-
SOUTHCENTRAL AND SOUTHEAST MONTANA
CITY           SKY/WX    TMP DP  RH WIND       PRES   REMARKS
BAKER          SUNNY     77  52  42 NE9       30.22F
BILLINGS       PTCLDY    73  54  51 SW7       30.25S
LIVINGSTON     PTCLDY    73  50  44 CALM      30.28F
MILES CITY     SUNNY     77  52  42 E3        30.20F
* LAUREL APT   SUNNY     75  54  48 N/A        N/A
* ROUNDUP APT  PTCLDY    77  48  36 N/A        N/A
* ALZADA       N/A       72  52  49 SW2        N/A
* HYSHAM       N/A       79  46  31 W4G9       N/A
* LAME DEER    N/A       74  39  28 N2G9       N/A
* REED POINT   N/A       74  52  46 S1         N/A
* ROSCOE HILL  N/A       76  37  24 E14G20     N/A
$$

REGIONAL REPORTS...DAKOTAS
CITY           SKY/WX    TMP DP  RH WIND       PRES   REMARKS
WILLISTON      SUNNY     79  52  39 N9        30.19F
DICKINSON      SUNNY     73  55  53 N7        30.18F
CROSBY         SUNNY     72  57  59 N6        30.20F
TIOGA          SUNNY     72  54  53 N8        30.22F
WATFORD CITY   SUNNY     73  57  57 NE7       30.18S
BISMARCK       SUNNY     77  57  50 VRB3      30.17F
GRAND FORKS    SUNNY     75  59  58 NW5       30.12R
FARGO          SUNNY     75  55  50 VRB6      30.13S
BUFFALO SD     SUNNY     75  54  48 N10       30.14F
RAPID CITY     PTCLDY    75  54  48 CALM      30.21S
$$

REGIONAL REPORTS...WYOMING/IDAHO/WASHINGTON
CITY           SKY/WX    TMP DP  RH WIND       PRES   REMARKS
GILLETTE       PTCLDY    73  50  44 W3        30.28R
SHERIDAN       PTCLDY    73  48  41 E3        30.28S
YELLOWSTONE LA PTCLDY    61  43  52 SE5       30.49S
SALMON         PTSUNNY   68  54  61 CALM      30.22F
MULLAN PASS    PTCLDY    73  39  29 CALM      30.31S
SAND POINT     SUNNY     73  52  48 NE6       30.08S
SPOKANE        PTCLDY    81  43  26 S10       30.08R
$$

REGIONAL REPORTS...ALBERTA
CITY           SKY/WX    TMP DP  RH WIND       PRES   REMARKS
CALGARY        SUNNY     77  46  33 SW7       30.12F
LETHBRIDGE     SUNNY     75  55  50 S7        30.11S
MEDICINE HAT   PTCLDY    82  52  35 VRB5      30.08F
EDMONTON       SUNNY     75  66  74 VRB2      30.06S
WATERTON GATE  N/A       75  50  42 SW6        N/A
CARDSTON       N/A       79  57  47 SE2        N/A
MILK RIVER     N/A       79  43  28 S9         N/A
$$

REGIONAL REPORTS...SASKATCHEWAN
CITY           SKY/WX    TMP DP  RH WIND       PRES   REMARKS
SWIFT CURRENT  SUNNY     77  55  47 S17       30.12F
MOOSE JAW      SUNNY     77  61  58 CALM      30.19R
REGINA         SUNNY     73  55  53 S6        30.20S
VAL MARIE      N/A       77  54  45 S10        N/A
ASSINIBOIA     N/A       73  59  62 SE5        N/A
CORONACH       N/A       73  59  62 S6         N/A

$$




USA.gov is the U.S. government's official web portal to all federal, state and local government web resources and services.